Flag for Bolivia Weather past 2 weeks in Cochabamba, Bolivia

Now
70 °F

Broken clouds.


Feels Like: 70 °F
Forecast: N/A
Wind: 8 mph from Northeast

Location: Cochabamba Airport

Current Time: Mar 6, 2015 at 6:30:25 PM

Latest Report: Mar 6, 2015 at 5:00 PM


Visibility: N/A

Pressure: 30.18 "Hg

Humidity: 50%

Dew point: 50 °F

Location of CochabambaLocation

Historic Weather in Cochabamba — Graph

°F

Cochabamba temperature yesterday

Maximum temperature yesterday: 64 °F (at 10:00 AM)
Minimum temperature yesterday: 59 °F (at 3:00 AM)
Average temperature yesterday: 61 °F

Past Weeks' High & Low Weather Summary

 TemperatureHumidityPressure
High82 °F (Feb 19, 5:00 PM)100% (Feb 23, 7:00 AM)30.45 "Hg (Feb 23, 7:00 AM)
Low52 °F (Feb 27, 7:00 AM)12% (Feb 19, 5:00 PM)29.98 "Hg (Feb 19, 5:00 PM)
Average65 °F64%30.24 "Hg
* Reported Feb 19 5:00 PM — Mar 6 5:00 PM, Cochabamba, Weather by CustomWeather, © 2015

Note: Actual official high and low records may vary slightly from our data, if they occured in-between our weather recording intervals... More about our weather records

Advertising

Cochabamba weather history for previous 24 hours

 ConditionsComfort  
Time TempWeatherWind HumidityBarometerVisibility
5:00 PM
Fri, Mar 6
70 °FBroken clouds.8 mph50%30.18 "HgN/A
4:00 PM68 °FBroken clouds.3 mph56%30.21 "HgN/A
3:00 PM66 °FBroken clouds.12 mph60%30.24 "HgN/A
2:00 PM70 °FBroken clouds.9 mph53%30.24 "HgN/A
1:00 PM72 °FBroken clouds.6 mph53%30.27 "HgN/A
12:00 PM70 °FBroken clouds.7 mph60%30.30 "HgN/A
11:00 AM68 °FBroken clouds.No wind53%30.33 "HgN/A
10:00 AM66 °FBroken clouds.No wind64%30.33 "HgN/A
9:00 AM64 °FBroken clouds.No wind68%30.33 "HgN/A
8:00 AM63 °FPartly sunny.No wind77%30.33 "Hg5 mi
7:00 AM57 °FPartly sunny.No wind88%30.30 "Hg4 mi
6:00 AM57 °FPassing clouds.No wind94%30.27 "HgN/A
5:00 AM57 °FPassing clouds.No wind94%30.27 "HgN/A
4:00 AM57 °FPassing clouds.No wind94%30.27 "HgN/A
3:00 AM57 °FPassing clouds.No wind94%30.27 "HgN/A
2:00 AM57 °FPassing clouds.No wind94%30.30 "HgN/A
1:00 AM59 °FPassing clouds.3 mph88%30.30 "HgN/A
12:00 AM59 °FPassing clouds.3 mph88%30.33 "HgN/A
11:00 PM
Thu, Mar 5
61 °FPassing clouds.No wind77%30.33 "HgN/A
10:00 PM61 °FPassing clouds.3 mph77%30.33 "HgN/A
9:00 PM63 °FPassing clouds.5 mph68%30.27 "HgN/A
8:00 PM63 °FPassing clouds.No wind73%30.24 "HgN/A
7:00 PM63 °FPartly cloudy.3 mph68%30.24 "HgN/A
6:00 PM63 °FBroken clouds.3 mph73%30.21 "HgN/A
Weather by CustomWeather, © 2015

See weather overviewHow to use our weather pages